Location: Newark
(42.8481°N, 0.4872°E)
Time: 06:09:08
(UTC+00:00)

Explorer 7 - Pass Details

Date: 31 October 2020
Orbit: 484 x 678 km, 50.3° (Epoch: 30 November)

Event Time Altitude Azimuth Distance (km) Brightness Sun altitude
Rises 17:23:57 0° 301° (WNW) 2,583 11.0 -6.6°
Reaches altitude 10° 17:26:07 10° 306° (NW) 1,717 10.0 -7.0°
Maximum altitude 17:29:57 55° 25° (NNE) 631 6.9 -7.6°
Drops below altitude 10° 17:33:57 10° 104° (ESE) 1,805 8.9 -8.4°
Enters shadow 17:34:21 - 105° (ESE) 1,956 9.1 -8.4°
